MST,Max TemperatureF,Mean TemperatureF,Min TemperatureF,Max Dew PointF,MeanDew PointF,Min DewpointF,Max Humidity, Mean Humidity, Min Humidity, Max Sea Level PressureIn, Mean Sea Level PressureIn, Min Sea Level PressureIn, Max VisibilityMiles, Mean VisibilityMiles, Min VisibilityMiles, Max Wind SpeedMPH, Mean Wind SpeedMPH, Max Gust SpeedMPH,PrecipitationIn, CloudCover, Events, WindDirDegrees
2014-1-1,30,16,1,25,17,1,100,85,64,30.35,30.22,30.10,10,10,9,10,3,,0.02,4,,82
2014-1-2,21,10,0,16,7,0,100,92,79,30.36,30.29,30.13,10,10,10,10,5,,0.00,5,,11
2014-1-3,35,18,1,30,17,1,100,85,68,30.12,29.88,29.68,10,9,0,26,7,39,0.00,7,Snow,252
2014-1-4,21,11,1,12,9,1,100,85,54,30.01,29.92,29.79,10,9,3,14,5,17,0.00,7,,347
2014-1-5,15,4,-9,9,0,-11,92,71,45,30.33,30.18,30.02,10,10,9,17,6,24,0.00,5,,336
2014-1-6,17,3,-11,1,-7,-15,92,81,49,30.42,30.34,30.24,10,10,10,9,4,,0.00,0,,10
2014-1-7,21,10,-2,12,4,-4,92,86,63,30.23,30.13,30.04,10,10,10,7,4,,0.00,5,,13
2014-1-8,28,19,10,27,17,9,100,90,80,30.07,30.02,29.95,10,10,5,14,4,,0.00,8,Snow,14
2014-1-9,28,24,19,28,24,16,100,93,69,29.95,29.81,29.68,10,6,0,18,8,28,0.01,8,Snow,203
2014-1-10,33,26,19,25,20,16,100,83,52,30.01,29.85,29.77,10,8,2,21,13,29,0.01,7,Snow,181
2014-1-11,37,34,30,34,30,25,100,88,75,30.03,29.86,29.56,10,7,0,29,14,36,0.01,8,Snow,187
2014-1-12,30,27,24,25,21,16,93,81,64,30.06,29.81,29.61,10,7,1,28,17,34,0.07,8,Snow,204
2014-1-13,33,28,24,27,24,18,100,76,52,30.26,30.14,30.05,10,9,2,21,15,31,0.00,7,,179
2014-1-14,35,26,17,23,19,14,93,67,48,30.48,30.39,30.25,10,10,9,20,9,32,0.00,4,,251
2014-1-15,37,22,8,21,13,9,100,88,45,30.46,30.40,30.31,10,10,7,18,8,26,0.00,0,,11
2014-1-16,26,14,1,16,7,0,100,89,64,30.47,30.40,30.38,10,10,10,15,6,,0.00,0,,20
2014-1-17,24,12,0,16,5,-2,100,89,68,30.38,30.34,30.26,10,10,2,10,5,,0.00,0,,14
2014-1-18,24,12,1,16,5,0,100,88,59,30.43,30.35,30.32,10,10,10,13,5,,0.00,0,,11
2014-1-19,21,10,-2,16,4,-4,100,89,68,30.33,30.26,30.15,10,10,10,12,7,,0.00,0,,19
2014-1-20,26,13,0,16,5,-2,100,88,59,30.50,30.38,30.21,10,10,10,10,4,,0.00,0,,10
2014-1-21,21,7,-7,10,-2,-9,100,88,58,30.51,30.43,30.30,10,10,10,10,7,,0.00,0,,11
2014-1-22,19,8,-2,18,6,-6,100,93,73,30.30,30.19,30.08,10,9,1,17,6,,0.00,2,Snow,10
2014-1-23,19,10,-2,16,6,-4,100,90,68,30.49,30.37,30.20,10,10,8,20,12,,0.00,1,Fog,10
2014-1-24,24,10,-4,10,0,-8,92,83,54,30.56,30.50,30.43,10,10,10,10,5,,0.00,0,,17
2014-1-25,26,12,-2,12,3,-2,100,86,55,30.45,30.34,30.20,10,10,10,12,6,,0.00,0,,14
2014-1-26,26,12,-2,19,7,-4,100,88,64,30.20,30.09,30.01,10,10,10,12,5,,0.00,3,,12
2014-1-27,26,13,-4,19,9,-11,100,75,38,30.21,30.05,29.98,10,8,2,12,4,25,0.03,4,Snow,11
2014-1-28,12,-2,-16,7,-8,-18,92,73,48,30.28,30.20,30.13,10,10,5,10,6,,0.00,2,,17
2014-1-29,51,30,8,32,18,5,100,87,26,30.13,29.85,29.53,10,6,0,23,6,33,0.09,7,Snow,182
2014-1-30,30,26,21,27,24,19,100,90,69,29.68,29.65,29.62,10,9,5,18,9,16,0.00,7,Snow,193
2014-1-31,26,17,8,19,14,5,100,83,50,29.77,29.71,29.67,10,10,5,15,8,18,0.00,5,,197